Location: Colorado Springs
(38.8340°N, 104.8210°W)
Time: 13:17:59
(UTC-06:00)

ISS - Pass Details

Date: 11 October 2017
Orbit: 401 x 408 km, 51.6° (Epoch: 23 October)

Event Time Altitude Azimuth Distance (km) Brightness Sun altitude
Rises 19:58:05 0° 313° (NW) 2,327 0.9 -18.7°
Reaches altitude 10° 20:00:15 10° 322° (NW) 1,466 -0.4 -19.1°
Enters shadow 20:02:53 36° 9° (N) 662 -2.8 -19.6°
